GW6025 Weather Reports


time (UTC)temp
F
wind
direction
speed
knots
gust
knots
rain 1hr
in
rain 24hr
in
rain mn
in
humidity
%
barometer
mb
20260510164526 83 136 1.7 3.5 0.00 0.00 0.00 54 1013.3
20260510164023 83 126 1.7 3.5 0.00 0.00 0.00 58 1013.3
20260510163518 82 181 1.7 1.7 0.00 0.00 0.00 60 1013.3
20260510163014 81 147 0.0 1.7 0.00 0.00 0.00 60 1013.2
20260510162510 82 151 0.9 2.6 0.00 0.00 0.00 59 1013.2
20260510162006 82 183 0.9 2.6 0.00 0.00 0.00 59 1013.3
20260510161502 82 191 0.9 1.7 0.00 0.00 0.00 59 1013.4
20260510160959 82 178 0.9 2.6 0.00 0.00 0.00 60 1013.5
20260510160457 81 203 1.7 2.6 0.00 0.00 0.00 62 1013.3
20260510155954 81 216 2.6 5.2 0.00 0.00 0.00 61 1013.5
20260510155452 80 198 1.7 1.7 0.00 0.00 0.00 62 1013.5
20260510154949 81 217 1.7 2.6 0.00 0.00 0.00 62 1013.5
20260510154444 80 183 0.9 1.7 0.00 0.00 0.00 61 1013.5
20260510153943 80 183 0.0 0.0 0.00 0.00 0.00 63 1013.3
20260510153440 80 220 3.5 5.2 0.00 0.00 0.00 61 1013.3
20260510152937 80 178 0.0 2.6 0.00 0.00 0.00 62 1013.2
20260510152434 79 161 0.0 0.9 0.00 0.00 0.00 65 1013.6
20260510151931 79 164 0.0 1.7 0.00 0.00 0.00 66 1013.0
20260510151428 79 178 0.9 1.7 0.00 0.00 0.00 67 1013.0
20260510150924 78 166 0.9 1.7 0.00 0.00 0.00 71 1013.2
20260510150420 77 178 1.7 1.7 0.00 0.00 0.00 72 1013.4
20260510145916 77 182 0.0 0.9 0.00 0.00 0.00 71 1013.2
20260510145413 76 106 1.7 2.6 0.00 0.00 0.00 72 1013.1
20260510144910 76 329 1.7 1.7 0.00 0.00 0.00 73 1013.1
20260510144407 76 148 0.9 1.7 0.00 0.00 0.00 75 1013.4
20260510143907 75 204 0.9 2.6 0.00 0.00 0.00 76 1013.3
20260510143403 75 167 0.9 1.7 0.00 0.00 0.00 75 1013.4
20260510142900 75 190 1.7 2.6 0.00 0.00 0.00 76 1013.5
20260510142356 74 216 1.7 3.5 0.00 0.00 0.00 76 1013.4
20260510141853 73 177 0.0 2.6 0.00 0.00 0.00 78 1013.3
20260510141351 73 187 1.7 2.6 0.00 0.00 0.00 79 1013.1
20260510140848 72 224 1.7 2.6 0.00 0.00 0.00 80 1013.1
20260510140344 71 185 0.9 2.6 0.00 0.00 0.00 81 1013.1
20260510135843 71 207 0.9 1.7 0.00 0.00 0.00 81 1012.8
20260510135339 71 207 1.7 2.6 0.00 0.00 0.00 82 1012.8
20260510134837 71 250 1.7 1.7 0.00 0.00 0.00 82 1012.9
20260510134333 70 187 0.0 0.0 0.00 0.00 0.00 83 1012.7
20260510133829 70 196 0.9 1.7 0.00 0.00 0.00 83 1012.9
20260510133325 70 246 1.7 2.6 0.00 0.00 0.00 83 1013.0
20260510132821 69 188 0.0 1.7 0.00 0.00 0.00 83 1012.9
20260510132319 69 152 0.0 0.9 0.00 0.00 0.00 84 1012.9
20260510131816 69 198 0.9 1.7 0.00 0.00 0.00 84 1012.9
20260510131314 69 187 0.0 1.7 0.00 0.00 0.00 84 1012.8
20260510130810 69 191 0.9 0.9 0.00 0.00 0.00 84 1012.8
20260510130307 68 150 0.0 0.0 0.00 0.00 0.00 85 1012.6
20260510125803 67 150 0.0 0.0 0.00 0.00 0.00 86 1012.7
20260510125259 67 149 0.0 0.0 0.00 0.00 0.00 85 1012.9
20260510124756 66 149 0.0 0.0 0.00 0.00 0.00 87 1012.6
20260510124253 65 150 0.0 0.0 0.00 0.00 0.00 88 1012.8
20260510123749 65 150 0.0 0.0 0.00 0.00 0.00 89 1012.6
20260510123245 64 150 0.0 0.0 0.00 0.00 0.00 89 1012.7
20260510122741 63 150 0.0 0.0 0.00 0.00 0.00 90 1012.5
20260510122238 62 150 0.0 0.0 0.00 0.00 0.00 91 1012.8
20260510121729 61 150 0.0 0.0 0.00 0.00 0.00 92 1012.5
20260510121226 61 150 0.0 0.0 0.00 0.00 0.00 94 1012.4
20260510120723 60 150 0.0 0.0 0.00 0.00 0.00 95 1012.4
20260510120220 59 150 0.0 0.0 0.00 0.00 0.00 95 1012.5
20260510115715 59 150 0.0 0.0 0.00 0.00 0.00 96 1012.4
20260510115214 58 150 0.0 0.0 0.00 0.00 0.00 96 1012.5
20260510114708 58 150 0.0 0.0 0.00 0.00 0.00 96 1012.2
20260510114206 57 150 0.0 0.0 0.00 0.00 0.00 95 1012.2
20260510113655 57 150 0.0 0.0 0.00 0.00 0.00 95 1012.4
20260510113153 57 150 0.0 0.0 0.00 0.00 0.00 95 1012.4
20260510112649 57 150 0.0 0.0 0.00 0.00 0.00 95 1012.2
20260510112146 57 150 0.0 0.0 0.00 0.00 0.00 95 1012.0
20260510111642 57 150 0.0 0.0 0.00 0.00 0.00 95 1011.9
20260510111139 57 150 0.0 0.0 0.00 0.00 0.00 95 1011.9
20260510110634 57 150 0.0 0.0 0.00 0.00 0.00 95 1011.8
20260510110131 57 150 0.0 0.0 0.00 0.00 0.00 95 1011.8
20260510105626 57 150 0.0 0.0 0.00 0.00 0.00 95 1011.8
20260510105121 57 150 0.0 0.0 0.00 0.00 0.00 95 1011.7
20260510104619 57 150 0.0 0.0 0.00 0.00 0.00 95 1011.6
20260510104115 57 150 0.0 0.0 0.00 0.00 0.00 95 1011.5
20260510103612 57 150 0.0 0.0 0.00 0.00 0.00 95 1011.4
20260510103108 57 150 0.0 0.0 0.00 0.00 0.00 94 1011.2
20260510102603 57 150 0.0 0.0 0.00 0.00 0.00 94 1011.4
20260510102059 56 150 0.0 0.0 0.00 0.00 0.00 94 1011.2
20260510101557 56 150 0.0 0.0 0.00 0.00 0.00 94 1011.0
20260510101056 57 150 0.0 0.0 0.00 0.00 0.00 94 1011.1
20260510100551 56 150 0.0 0.0 0.00 0.00 0.00 94 1011.1
20260510100049 57 150 0.0 0.0 0.00 0.00 0.00 94 1011.1
20260510095544 57 150 0.0 0.0 0.00 0.00 0.00 93 1011.1
20260510095044 56 150 0.0 0.0 0.00 0.00 0.00 93 1011.1
20260510094538 57 150 0.0 0.0 0.00 0.00 0.00 93 1011.0
20260510094034 57 150 0.0 0.0 0.00 0.00 0.00 93 1010.8
20260510093530 57 150 0.0 0.0 0.00 0.00 0.00 93 1010.9
20260510093027 57 150 0.0 0.0 0.00 0.00 0.00 92 1010.9
20260510092524 57 150 0.0 0.0 0.00 0.00 0.00 93 1010.6
20260510092023 57 150 0.0 0.0 0.00 0.00 0.00 93 1010.5
20260510091521 57 150 0.0 0.0 0.00 0.00 0.00 93 1010.6
20260510091017 57 150 0.0 0.0 0.00 0.00 0.00 92 1010.3
20260510090514 57 150 0.0 0.0 0.00 0.00 0.00 92 1010.2
20260510090010 57 150 0.0 0.0 0.00 0.00 0.00 92 1010.2
20260510085504 57 150 0.0 0.0 0.00 0.00 0.00 92 1010.3
20260510085001 57 150 0.0 0.0 0.00 0.00 0.00 91 1010.2
20260510084457 57 150 0.0 0.0 0.00 0.00 0.00 91 1010.2
20260510083954 57 150 0.0 0.0 0.00 0.00 0.00 91 1010.2
20260510083451 57 150 0.0 0.0 0.00 0.00 0.00 91 1010.2
20260510082946 58 150 0.0 0.0 0.00 0.00 0.00 91 1010.1
20260510082444 58 150 0.0 0.0 0.00 0.00 0.00 91 1010.2
20260510081943 58 150 0.0 0.0 0.00 0.00 0.00 91 1010.3
20260510081439 58 150 0.0 0.0 0.00 0.00 0.00 91 1010.2
20260510080936 58 150 0.0 0.0 0.00 0.00 0.00 90 1009.9
20260510080434 58 150 0.0 0.0 0.00 0.00 0.00 90 1009.8
20260510075931 58 150 0.0 0.0 0.00 0.00 0.00 90 1009.9
20260510075429 58 150 0.0 0.0 0.00 0.00 0.00 89 1010.0
20260510074926 58 150 0.0 0.0 0.00 0.00 0.00 90 1010.0
20260510074423 58 150 0.0 0.0 0.00 0.00 0.00 90 1010.0
20260510073919 58 150 0.0 0.0 0.00 0.00 0.00 90 1009.9
20260510073414 57 150 0.0 0.0 0.00 0.00 0.00 90 1010.0
20260510072911 57 150 0.0 0.0 0.00 0.00 0.00 90 1010.1
20260510072409 57 150 0.0 0.0 0.00 0.00 0.00 89 1010.0
20260510071909 57 150 0.0 0.0 0.00 0.00 0.00 89 1009.9
20260510071406 57 150 0.0 0.0 0.00 0.00 0.00 88 1009.9
20260510070904 57 150 0.0 0.0 0.00 0.00 0.00 88 1010.0
20260510070401 57 150 0.0 0.0 0.00 0.00 0.00 88 1010.0
20260510065856 57 150 0.0 0.0 0.00 0.00 0.00 88 1010.1
20260510065353 57 150 0.0 0.0 0.00 0.00 0.00 89 1010.2
20260510064850 57 150 0.0 0.0 0.00 0.00 0.00 89 1010.1
20260510064348 58 150 0.0 0.0 0.00 0.00 0.00 88 1010.1
20260510063844 58 150 0.0 0.0 0.00 0.00 0.00 88 1010.1
20260510063340 58 150 0.0 0.0 0.00 0.00 0.00 88 1010.2
20260510062837 58 150 0.0 0.0 0.00 0.00 0.00 88 1009.8
20260510062333 58 150 0.0 0.0 0.00 0.00 0.00 87 1009.8
20260510061828 58 150 0.0 0.0 0.00 0.00 0.00 87 1009.6
20260510061325 57 150 0.0 0.0 0.00 0.00 0.00 88 1009.6
20260510060821 58 150 0.0 0.0 0.00 0.00 0.00 87 1009.6
20260510060319 58 150 0.0 0.0 0.00 0.00 0.00 87 1009.5
20260510055815 58 150 0.0 0.0 0.00 0.00 0.00 87 1009.6
20260510055314 58 150 0.0 0.0 0.00 0.00 0.00 87 1009.4
20260510054814 58 150 0.0 0.0 0.00 0.00 0.00 86 1009.6
20260510054309 58 150 0.0 0.0 0.00 0.00 0.00 87 1009.6
20260510053804 58 149 0.0 0.0 0.00 0.00 0.00 89 1009.4
20260510053259 59 149 0.0 0.0 0.00 0.00 0.00 88 1009.6
20260510052756 59 149 0.0 0.0 0.00 0.00 0.00 88 1009.5
20260510052251 59 149 0.0 0.0 0.00 0.00 0.00 88 1009.5
20260510051748 59 149 0.0 0.0 0.00 0.00 0.00 88 1009.6
20260510051244 59 149 0.0 0.0 0.00 0.00 0.00 88 1009.5
20260510050741 59 149 0.0 0.0 0.00 0.00 0.00 87 1009.3
20260510050238 59 149 0.0 0.0 0.00 0.00 0.00 88 1009.6
20260510045735 59 149 0.0 0.0 0.00 0.00 0.00 86 1009.5
20260510045232 59 149 0.0 0.0 0.00 0.00 0.00 86 1009.5
20260510044728 59 149 0.0 0.0 0.00 0.00 0.00 84 1009.5
20260510044227 59 149 0.0 0.0 0.00 0.00 0.00 84 1009.5
20260510043721 59 149 0.0 0.0 0.00 0.00 0.00 83 1009.4
20260510043219 60 149 0.0 0.0 0.00 0.00 0.00 82 1009.4
20260510042715 60 149 0.0 0.0 0.00 0.00 0.00 81 1009.3
20260510042212 60 149 0.0 0.0 0.00 0.00 0.00 81 1009.4
20260510041709 60 149 0.0 0.0 0.00 0.00 0.00 79 1009.4
20260510041206 61 149 0.0 0.0 0.00 0.00 0.00 78 1009.6
20260510040702 61 149 0.0 0.0 0.00 0.00 0.00 78 1009.6
20260510040200 61 149 0.0 0.0 0.00 0.00 0.00 76 1009.7
20260510035655 61 149 0.0 0.0 0.00 0.00 0.00 76 1009.7
20260510035150 62 149 0.0 0.0 0.00 0.00 0.00 75 1009.6
20260510034647 61 149 0.0 0.0 0.00 0.00 0.00 75 1009.6
20260510034144 62 149 0.0 0.0 0.00 0.00 0.00 75 1009.6
20260510033641 62 149 0.0 0.0 0.00 0.00 0.00 74 1009.5
20260510033139 62 149 0.0 0.0 0.00 0.00 0.00 74 1009.7
20260510032635 62 149 0.0 0.0 0.00 0.00 0.00 74 1009.5
20260510032130 62 149 0.0 0.0 0.00 0.00 0.00 73 1009.5
20260510031625 62 185 0.0 0.0 0.00 0.00 0.00 73 1009.6
20260510031122 62 163 0.0 0.0 0.00 0.00 0.00 72 1009.6
20260510030617 63 163 0.0 0.0 0.00 0.00 0.00 71 1009.5
20260510030115 64 163 0.0 0.0 0.00 0.00 0.00 70 1009.4
20260510025611 64 163 0.0 0.0 0.00 0.00 0.00 70 1009.5
20260510025109 64 163 0.0 0.0 0.00 0.00 0.00 69 1009.5
20260510024606 63 163 0.0 0.0 0.00 0.00 0.00 71 1009.4
20260510024102 64 163 0.0 0.0 0.00 0.00 0.00 71 1009.4
20260510023558 64 163 0.0 0.0 0.00 0.00 0.00 70 1009.3
20260510023056 64 163 0.0 0.0 0.00 0.00 0.00 70 1009.3
20260510022555 64 163 0.0 0.0 0.00 0.00 0.00 69 1009.2
20260510022056 65 163 0.0 0.0 0.00 0.00 0.00 68 1009.0
20260510021552 65 164 0.0 0.0 0.00 0.00 0.00 68 1009.1
20260510021050 66 164 0.0 0.0 0.00 0.00 0.00 67 1008.9
20260510020544 66 164 0.0 0.0 0.00 0.00 0.00 67 1008.8
20260510020040 66 164 0.0 0.0 0.00 0.00 0.00 67 1008.9
20260510015535 66 164 0.0 0.0 0.00 0.00 0.00 66 1008.8
20260510015031 67 163 0.0 0.0 0.00 0.00 0.00 64 1008.8
20260510014528 68 163 0.0 0.0 0.00 0.00 0.00 63 1008.8
20260510014025 69 163 0.0 0.0 0.00 0.00 0.00 61 1008.4
20260510013520 69 163 0.0 0.0 0.00 0.00 0.00 61 1008.3
20260510013016 70 163 0.0 0.0 0.00 0.00 0.00 60 1008.3
20260510012510 70 163 0.0 0.0 0.00 0.00 0.00 61 1008.2
20260510012006 70 163 0.0 0.0 0.00 0.00 0.00 61 1008.2
20260510011500 71 163 0.0 0.0 0.00 0.00 0.00 58 1008.3
20260510010957 71 163 0.0 0.0 0.00 0.00 0.00 58 1008.1
20260510010454 72 163 0.0 0.0 0.00 0.00 0.00 56 1008.1
20260510005951 73 164 0.0 0.0 0.00 0.00 0.00 56 1007.9
20260510005447 74 176 0.0 0.0 0.00 0.00 0.00 54 1007.9
20260510004945 75 176 0.0 0.0 0.00 0.00 0.00 51 1007.9
20260510004441 75 176 0.0 0.0 0.00 0.00 0.00 50 1007.9
20260510003940 77 177 0.0 0.0 0.00 0.00 0.00 48 1007.5
20260510003436 78 177 0.0 0.0 0.00 0.00 0.00 46 1007.5
20260510002936 79 177 0.0 0.0 0.00 0.00 0.00 42 1007.5
20260510002433 80 177 0.0 0.0 0.00 0.00 0.00 42 1007.5
20260510001929 81 178 0.0 0.0 0.00 0.00 0.00 39 1007.4
20260510001427 81 179 0.0 0.0 0.00 0.00 0.00 37 1007.4
20260510000924 82 181 0.0 0.0 0.00 0.00 0.00 35 1007.3
20260510000421 82 181 0.0 0.0 0.00 0.00 0.00 35 1007.2
20260509235917 82 182 0.0 0.0 0.00 0.00 0.00 34 1007.2
20260509235414 82 163 0.0 0.0 0.00 0.00 0.00 35 1007.0
20260509234910 82 163 0.0 0.0 0.00 0.00 0.00 36 1007.2
20260509234407 82 162 0.0 1.7 0.00 0.00 0.00 32 1007.0
20260509233905 82 159 0.9 1.7 0.00 0.00 0.00 34 1007.0
20260509233403 82 153 0.9 1.7 0.00 0.00 0.00 33 1007.1
20260509232858 82 164 0.9 1.7 0.00 0.00 0.00 32 1006.9
20260509232356 82 170 0.0 0.0 0.00 0.00 0.00 35 1007.0
20260509231852 83 160 0.0 0.0 0.00 0.00 0.00 34 1007.0
20260509231349 83 160 0.0 0.0 0.00 0.00 0.00 34 1007.0
20260509230847 84 161 0.0 0.0 0.00 0.00 0.00 34 1007.0
20260509230343 85 183 0.0 0.0 0.00 0.00 0.00 35 1006.9
20260509225838 83 174 0.0 0.0 0.00 0.00 0.00 34 1007.0
20260509225336 84 165 0.9 0.9 0.00 0.00 0.00 36 1006.9
20260509224832 85 208 1.7 2.6 0.00 0.00 0.00 33 1006.6
20260509224328 85 154 1.7 1.7 0.00 0.00 0.00 35 1006.7
20260509223825 84 208 0.0 0.0 0.00 0.00 0.00 34 1006.7
20260509223321 85 174 0.0 0.9 0.00 0.00 0.00 33 1006.9
20260509222819 85 185 0.0 1.7 0.00 0.00 0.00 33 1006.6
20260509222314 84 177 0.9 0.9 0.00 0.00 0.00 36 1006.7
20260509221810 85 169 0.9 1.7 0.00 0.00 0.00 36 1006.9
20260509221307 85 201 0.0 1.7 0.00 0.00 0.00 35 1007.0
20260509220802 84 205 1.7 1.7 0.00 0.00 0.00 32 1007.1
20260509220259 84 261 1.7 2.6 0.00 0.00 0.00 30 1007.1
20260509215754 85 190 0.9 2.6 0.00 0.00 0.00 31 1006.9
20260509215251 85 204 0.9 2.6 0.00 0.00 0.00 31 1006.9
20260509214748 85 354 2.6 5.2 0.00 0.00 0.00 30 1006.8
20260509214245 85 203 0.9 1.7 0.00 0.00 0.00 29 1007.1
20260509213742 85 123 1.7 1.7 0.00 0.00 0.00 31 1006.9
20260509213238 84 177 0.0 0.0 0.00 0.00 0.00 34 1006.9
20260509212735 85 134 1.7 2.6 0.00 0.00 0.00 30 1007.1
20260509212233 86 192 0.0 2.6 0.00 0.00 0.00 31 1007.1
20260509211728 85 174 0.9 0.9 0.00 0.00 0.00 35 1007.1
20260509211225 85 189 0.0 0.9 0.00 0.00 0.00 35 1007.2
20260509210721 85 145 1.7 1.7 0.00 0.00 0.00 33 1007.2
20260509210219 85 189 0.0 0.9 0.00 0.00 0.00 33 1007.1
20260509205719 84 167 1.7 1.7 0.00 0.00 0.00 32 1007.4
20260509205218 84 204 1.7 2.6 0.00 0.00 0.00 32 1007.2
20260509204715 84 200 0.9 1.7 0.00 0.00 0.00 36 1007.4
20260509204211 84 186 1.7 2.6 0.00 0.00 0.00 32 1007.4
20260509203707 85 213 1.7 2.6 0.00 0.00 0.00 34 1007.3
20260509203206 85 190 0.0 0.9 0.00 0.00 0.00 30 1007.2
20260509202701 84 205 0.9 1.7 0.00 0.00 0.00 26 1007.1
20260509202156 84 145 1.7 3.5 0.00 0.00 0.00 30 1007.4
20260509201651 84 20 3.5 3.5 0.00 0.00 0.00 31 1007.4
20260509201149 84 331 2.6 3.5 0.00 0.00 0.00 31 1007.4
20260509200645 84 16 0.9 6.1 0.00 0.00 0.00 32 1007.4
20260509200140 85 197 0.9 2.6 0.00 0.00 0.00 32 1007.4
20260509195636 86 174 1.7 1.7 0.00 0.00 0.00 33 1007.5
20260509195131 85 187 1.7 2.6 0.00 0.00 0.00 29 1007.5
20260509194630 84 169 1.7 1.7 0.00 0.00 0.00 34 1007.5
20260509194128 83 200 2.6 3.5 0.00 0.00 0.00 38 1007.6
20260509193623 82 245 2.6 3.5 0.00 0.00 0.00 39 1007.6
20260509193119 83 186 1.7 5.2 0.00 0.00 0.00 44 1007.6
20260509192617 84 190 0.9 2.6 0.00 0.00 0.00 42 1007.6
20260509192111 84 163 0.9 3.5 0.00 0.00 0.00 41 1007.6
20260509191606 84 166 0.9 2.6 0.00 0.00 0.00 38 1007.5
20260509191103 83 168 1.7 2.6 0.00 0.00 0.00 39 1007.6
20260509190559 82 152 0.0 1.7 0.00 0.00 0.00 43 1007.5
20260509190057 82 143 1.7 6.1 0.00 0.00 0.00 36 1007.7
20260509185554 82 246 2.6 5.2 0.00 0.00 0.00 36 1007.5
20260509185050 82 168 0.9 2.6 0.00 0.00 0.00 42 1007.8
20260509184549 82 214 1.7 2.6 0.00 0.00 0.00 36 1007.7
20260509184045 81 177 0.0 1.7 0.00 0.00 0.00 40 1007.7
20260509183540 82 352 2.6 6.1 0.00 0.00 0.00 37 1007.9
20260509183036 81 197 2.6 2.6 0.00 0.00 0.00 38 1007.9
20260509182533 82 339 3.5 5.2 0.00 0.00 0.00 35 1007.9
20260509182030 81 220 2.6 3.5 0.00 0.00 0.00 43 1008.0
20260509181528 81 180 0.9 1.7 0.00 0.00 0.00 46 1008.0
20260509181025 81 193 0.0 2.6 0.00 0.00 0.00 41 1008.0
20260509180521 81 320 2.6 3.5 0.00 0.00 0.00 41 1008.1
20260509180019 80 206 2.6 2.6 0.00 0.00 0.00 43 1008.1
20260509175519 80 221 2.6 5.2 0.00 0.00 0.00 45 1008.1
20260509175017 79 185 0.0 3.5 0.00 0.00 0.00 48 1008.2
20260509174513 80 189 1.7 3.5 0.00 0.00 0.00 45 1008.3
20260509174008 80 196 3.5 5.2 0.00 0.00 0.00 44 1008.2
20260509173503 80 178 0.9 3.5 0.00 0.00 0.00 43 1008.1
20260509172959 79 158 0.0 2.6 0.00 0.00 0.00 45 1008.3
20260509172457 79 16 3.5 3.5 0.00 0.00 0.00 46 1008.1
20260509171952 78 137 0.9 2.6 0.00 0.00 0.00 46 1008.1
20260509171448 78 179 0.0 2.6 0.00 0.00 0.00 49 1008.2
20260509170945 78 218 3.5 6.1 0.00 0.00 0.00 47 1008.2
20260509170440 78 2 0.9 7.0 0.00 0.00 0.00 47 1008.3
20260509165936 78 199 3.5 3.5 0.00 0.00 0.00 47 1008.4
20260509165430 78 297 1.7 3.5 0.00 0.00 0.00 47 1008.4
20260509164926 78 170 0.9 5.2 0.00 0.00 0.00 46 1008.2